Location: Luz Observatory
(34.5000°N, 117.2833°W)
Time: 14:23:15
(UTC-07:00)

Daily predictions for brighter satellites

Satellite Brightness Start Highest point End
(mag) Time Altitude Azimuth Time Altitude Azimuth Time Altitude Azimuth
Iridium 4 Rocket 3.9 20:14:52 10° NNE 20:19:42 47° E 20:24:57 10° SSE
Cosmos 1943 4.1 20:14:49 10° SW 20:20:21 57° WNW 20:25:53 10° NNE
RESURS DK-1 2.3 20:22:17 10° SSW 20:26:24 81° ESE 20:30:32 10° NNE
Cosmos 1538 Rocket 3.9 20:26:59 10° S 20:32:06 73° ESE 20:37:16 10° NNE
Okean 1 3.3 20:28:33 10° S 20:32:26 59° E 20:36:21 10° NNE
Cosmos 1455 Rocket 3.6 20:32:50 10° N 20:36:56 38° E 20:40:51 11° SSE
Cosmos 405 Rocket 4.0 20:34:20 11° SE 20:37:02 21° E 20:39:54 10° NE
Cosmos 44 4.2 20:33:02 10° NW 20:37:04 39° WSW 20:41:08 10° S
Abrixas 2.7 20:34:35 10° WNW 20:37:17 54° SW 20:39:28 14° SE
Tiangong 2 2.0 20:35:01 10° SSW 20:37:47 28° SE 20:40:33 10° E
Cosmos 1975 3.4 20:34:16 10° N 20:38:07 41° E 20:41:51 11° SSE
DEBRIS 2.8 20:35:39 10° SW 20:38:16 82° SE 20:45:07 10° NE
YAOGAN 6 4.0 20:39:52 13° ESE 20:41:52 21° ENE 20:44:33 10° NNE
NOSS 2-2 (E) 3.4 20:38:45 10° SSW 20:42:38 59° ESE 20:46:54 10° NE
ISS -2.1 20:41:18 10° SSE 20:43:04 15° SE 20:43:04 15° SE
SAR-Lupe-4 4.1 20:40:32 12° SE 20:43:32 41° ENE 20:46:55 10° N
Helios 1B rocket 2.4 20:39:38 10° NNE 20:43:45 68° ESE 20:47:51 10° S
Cosmos 2369 Rocket 2.6 20:38:12 10° NNW 20:43:48 67° WSW 20:49:25 10° S
Cosmos 1939 Rocket 3.1 20:45:14 13° SSE 20:48:31 48° ENE 20:52:15 10° N
Meteor 1-29 2.9 20:45:40 10° NNE 20:49:00 58° E 20:52:19 10° S
Cosmos 1437 2.9 20:49:25 10° S 20:52:32 50° E 20:55:40 10° NNE
Cosmos 1500 3.1 20:52:15 10° N 20:56:01 85° E 20:59:30 12° S
COSMOS 2455 3.0 20:50:40 10° NNW 20:56:38 62° ENE 21:01:12 17° SE
Cosmos 1709 Rocket 4.1 20:52:23 10° N 20:58:41 81° W 21:04:51 10° S
OAO 2 Rocket 3.2 20:54:35 10° WSW 20:59:30 71° SSE 21:04:26 10° E
Cosmos 1818 3.7 20:54:41 10° SSW 21:00:06 78° WNW 21:05:34 10° NNE
SAR-Lupe-1 4.1 20:57:52 19° SSE 21:00:18 60° ENE 21:03:51 10° N
CZ-4B DEB 2.5 20:59:52 22° SSE 21:01:39 68° ENE 21:04:37 10° N
USA 186 3.4 20:58:44 10° SSW 21:01:43 34° W 21:04:41 10° NNW
Cosmos 1943 Rocket 2.2 20:56:48 10° NNW 21:02:26 89° WSW 21:07:05 15° SSE
ERS-1 Rocket 3.6 21:01:30 19° SE 21:04:31 39° ENE 21:09:09 10° N
H-2A R/B 3.9 21:04:42 11° E 21:06:22 13° ENE 21:08:29 10° NE
Meteor 1-12 Rocket 4.4 21:00:46 10° N 21:06:50 84° W 21:12:47 10° S
COSMOS 2406 3.2 21:01:36 10° S 21:07:13 60° ESE 21:12:51 10° NNE
USA 81 4.1 21:07:43 10° S 21:12:59 86° W 21:18:18 10° N
Cosmos 2112 Rocket 4.2 21:08:37 10° S 21:13:37 48° ESE 21:18:37 10° NNE
NOSS 3-2 (C) 4.4 21:06:01 10° NW 21:13:39 63° WSW 21:20:50 14° SSE
ARGOS 4.2 21:13:55 21° ESE 21:16:13 29° ENE 21:20:49 10° N
SJ-11-01 4.5 21:13:41 14° S 21:17:40 71° WSW 21:22:22 10° NNW
Cosmos 1743 2.7 21:14:56 10° N 21:18:47 62° E 21:20:24 32° SSE
CZ-3A R/B 1.5 21:12:53 10° SSW 21:19:10 39° SE 21:19:42 36° ESE
SL-27 R/B 2.9 21:24:26 41° ESE 21:24:48 43° ESE 21:28:18 10° NNE
NOSS 2-2 (D) 4.2 21:21:35 10° SW 21:25:26 53° NW 21:29:43 10° NNE
Cosmos 1536 Rocket 4.4 21:23:52 10° SSW 21:28:03 48° W 21:32:14 10° N
ASTRO E2 2.8 21:24:20 10° W 21:28:15 55° S 21:29:07 44° SE
Cosmos 192 4.3 21:29:14 23° S 21:32:09 58° ESE 21:36:58 10° NNE
Cosmos 2184 Rocket 4.0 21:31:01 10° N 21:37:24 83° E 21:41:15 25° S
Cosmos 1680 Rocket 3.5 21:32:15 10° SSW 21:37:29 82° WNW 21:42:43 10° NNE
Aureole 1 Rocket 2.3 21:36:15 35° SSW 21:37:37 89° ESE 21:40:46 10° NNE
CENTAUR R/B 3.2 21:30:09 10° NNW 21:38:13 74° ENE 21:42:54 30° SE
Cosmos 2074 Rocket 3.9 21:32:20 10° N 21:38:37 88° E 21:42:34 24° S
Cosmos 405 3.9 21:35:35 10° NNE 21:38:31 33° ENE 21:38:31 33° ENE
Meteor 2-13 Rocket 4.3 21:33:30 10° N 21:39:35 85° E 21:43:05 27° S
Intercosmos 24 4.5 21:37:40 10° N 21:41:05 35° ENE 21:41:05 35° ENE
MetOp-B 4.1 21:42:24 37° SSE 21:44:30 70° ENE 21:49:50 10° N
Cosmos 1666 2.7 21:47:55 10° N 21:51:39 73° W 21:52:10 61° SSW
Meteor 2-9 Rocket 4.1 21:47:53 10° N 21:53:22 78° E 21:55:15 43° SSE
SPOT 5 2.6 21:53:00 56° ESE 21:53:29 60° ENE 21:57:44 10° N
Meteor 2-4 Rocket 3.9 21:49:08 17° SSW 21:53:32 73° W 21:59:16 10° N
SPOT 1/Viking Rocket 3.9 21:56:00 43° ESE 21:56:54 48° ENE 22:01:51 10° N
SL-08 RB Rocket 3.7 21:59:02 56° E 21:59:21 58° ENE 22:03:44 10° N
Cosmos 1025 Rocket 2.9 21:59:36 57° SSW 22:00:26 82° W 22:04:43 10° N
ASTEX 1 4.2 22:02:58 26° SSW 22:05:23 48° W 22:10:08 10° NNW
Cosmos 1833 Rocket 4.3 22:10:08 19° ENE 22:10:08 19° ENE 22:12:27 10° NE
Terra 3.0 22:11:45 29° ENE 22:11:45 29° ENE 22:15:31 10° NNE
Tiangong 2 3.0 22:11:26 10° W 22:13:17 28° WNW 22:13:17 28° WNW
Cosmos 2154 Rocket 4.0 22:14:29 10° N 22:20:51 83° W 22:22:44 49° S
H-2A R/B 3.3 22:22:16 33° NE 22:22:16 33° NE 22:25:40 10° N
Cosmos 1371 Rocket 3.9 22:17:53 10° NNW 22:23:12 70° ENE 22:23:26 69° E
SL-8 Rocket 4.3 22:20:53 10° N 22:26:53 47° E 22:27:14 46° E
Meteor 1-15 Rocket 4.2 22:24:47 10° NNW 22:30:21 72° W 22:31:13 60° SSW
Cosmos 1980 Rocket 4.4 22:36:22 10° NNE 22:38:43 12° NE 22:39:36 12° ENE
OAO 2 Rocket 3.6 22:39:19 10° W 22:43:25 60° WNW 22:43:25 60° WNW
H-2A R/B 2.2 22:45:20 61° W 22:45:20 61° W 22:50:06 10° NNW
Cosmos 2341 Rocket 4.1 22:41:15 10° NNW 22:47:33 70° W 22:48:37 59° SW
DMSP B5D2-2 4.4 22:50:12 10° N 22:55:24 60° WNW 22:55:47 58° W
ARGOS 4.4 22:55:25 29° WSW 22:56:20 30° W 23:01:03 10° NW
Cosmos 1959 Rocket 4.5 22:51:53 10° N 22:58:11 71° ENE 22:58:11 71° ENE
USA 267 3.1 22:58:38 10° NE 23:05:13 87° NW 23:06:49 55° SW
Cosmos 2218 Rocket 3.9 22:59:12 10° N 23:05:06 79° NE 23:05:06 79° NE
Cosmos 2082 Rocket 2.4 23:06:38 65° NNE 23:06:38 65° NNE 23:11:27 10° NNE
Cosmos 2278 3.9 23:00:43 10° NNW 23:05:47 68° NNE 23:05:47 68° NNE
Cosmos 2228 4.5 23:04:50 10° NNW 23:07:32 36° NNW 23:07:32 36° NNW
SeaSat 1 4.4 23:09:31 19° NE 23:09:31 19° NE 23:12:36 10° N
Cosmos 2369 4.1 23:18:56 10° NNW 23:23:40 60° NW 23:23:40 60° NW
CZ-2C R/B 4.4 23:23:54 10° NE 23:26:29 23° NE 23:26:29 23° NE
Nadezhda 3 Rocket 4.4 23:32:43 57° NE 23:32:43 57° NE 23:37:56 10° NNE
Cosmos 1697 Rocket 3.4 23:31:24 10° NNW 23:35:40 50° N 23:35:40 50° N
Terra 3.9 23:50:38 20° WNW 23:50:38 20° WNW 23:52:57 10° NW
Cosmos 1833 Rocket 3.8 23:51:46 38° WNW 23:51:46 38° WNW 23:56:53 10° N
